Regional Weather Roundup
Issued by NWS New Orleans/Baton Rouge, LA

Home | Current Version | Previous Version | Graphics & Text | Print | Product List | Glossary On
Versions: 1 2 3 4 5 6 7 8 9 10 11 12 13 14 15 16 17 18 19 20 21 22 23 24 25 26 27 28 29 30 31 32 33 34 35 36 37 38 39 40 41 42 43 44 45 46 47 48 49 50
912
ASUS44 KLIX 060205
RWRLIX
NEW ORLEANS REGIONAL WEATHER ROUNDUP
NATIONAL WEATHER SERVICE NEW ORLEANS LA
800 PM CST THU MAR 05 2015

NOTE: "FAIR" INDICATES FEW OR NO CLOUDS BELOW 12,000 FEET WITH NO
      SIGNIFICANT WEATHER AND/OR OBSTRUCTIONS TO VISIBILITY.
      SKY/WX - SKY CONDITION AND SIGNIFICANT WEATHER.
      TMP - AIR TEMPERATURE.     DP    - DEWPOINT TEMPERATURE.
      RH  - RELATIVE HUMIDITY.   PRES  - PRESSURE.
      HI  - HEAT INDEX.          WCI   - WIND CHILL INDEX.

*  THESE STATIONS ARE NOT NWS OR FAA STATIONS AND ARE NOT UNDER
   NWS QUALITY CONTROL.

LAZ038-040-048-061>063-065>067-069-060300-
SOUTHEAST LOUISIANA

CITY           SKY/WX    TMP DP  RH WIND       PRES   REMARKS
N.O. AUDUBON   NOT AVBL
N.O. INTL ARPT CLOUDY    38  27  64 N16G30    30.42R WCI  29
N.O. LAKEFRONT CLOUDY    41  29  62 N24G36    30.43R
SLIDELL        CLOUDY    37  27  67 N15G22    30.40R WCI  28
BATON ROUGE    PTCLDY    33  21  61 N9G20     30.48R WCI  25
BOOTHVILLE     CLOUDY    44  36  73 N17G26    30.35R
BELLE CHASSE   MOCLDY    39  28  64 N15G30    30.40R WCI  31
BOGALUSA*        N/A     35  26  70 N15       30.45R WCI  25
GALLIANO*      CLOUDY    42  33  71 N18G28    30.39R
NEW ROADS*       N/A     33  18  53 N15G24    30.50R WCI  23
GONZALES*      CLOUDY    35  23  62 N14G20    30.45R WCI  26
HAMMOND*       PTCLDY    34  23  64 N16G24    30.46R WCI  23
HOUMA*         CLOUDY    38  28  69 N18G28    30.40R WCI  28
PORT FOURCHON* CLOUDY    43  34  70 N25G33    30.40R

$$

MSZ070-080>082-060300-
SOUTHERN MISSISSIPPI

CITY           SKY/WX    TMP DP  RH WIND       PRES   REMARKS
MCCOMB         PTCLDY    30  20  66 N14G23    30.45R WCI  19
GULFPORT       CLOUDY    37  27  67 N17G25    30.37R WCI  27
BILOXI         CLOUDY    38  29  72 N17G29    30.36R WCI  28
PASCAGOULA     CLOUDY    37  28  70 N24G30    30.35R WCI  26

$$

COASTAL OBSERVATIONS
LAKE AND NEARSHORE STATIONS

STATION/POSITION TIME  TEMP    WIND        PRES    WAVE
                       AIR SEA DIR/SP/G            HT/PER
                 (UTC) (F)     (DEG/KT/KT) (MB)    (FT/S)
PASCAGOULA       0200   38      10/ 19/ 22 1026.6
WAVELAND YACHT   0200   38 52   10/ 25/ 31 1028.0
GRAND ISLE       0200   42 63   20/ 23/ 29 1028.1
SOUTHWEST PASS   0200   45 44   10/ 27/ 33 1026.6
NEW CANAL        0200   40      10/ 24/ 29 1029.5
SHELL BEACH      0200   39 58   10/ 26/ 32 1027.5

OFFSHORE STATIONS

STATION/POSITION TIME  TEMP    WIND        PRES    WAVE
                       AIR SEA DIR/SP/G            HT/PER
                 (UTC) (F)     (DEG/KT/KT) (MB)    (FT/S)
64 S DAUPHIN ISL 0145   48 69   20/ 31/ 39 1025.6    9/ 7

$$




USA.gov is the U.S. government's official web portal to all federal, state and local government web resources and services.